Location: Newark
(39.8867°N, 94.3600°W)
Time: 19:44:24
(UTC+00:00)

N. Korean satellite - Pass Details

Date: 02 February 2020
Orbit: 456 x 505 km, 97.2° (Epoch: 19 February)

Event Time Altitude Azimuth Distance (km) Brightness Sun altitude
Rises 00:18:16 0° 209° (SSW) 2,460 10.9 -8.4°
Reaches altitude 10° 00:21:10 10° 238° (WSW) 1,597 10.6 -9.0°
Maximum altitude 00:22:53 13° 268° (W) 1,415 10.3 -9.3°
Drops below altitude 10° 00:24:37 10° 298° (WNW) 1,610 10.0 -9.6°
Sets 00:27:35 0° 327° (NNW) 2,501 10.5 -10.2°
